SCP
2 1 1 2 2 2 1 1 1 1 1 0 0 0 0 0 0 1 0 0 0 0 0 0 0 0 0 0 0 0 0 0 0 0 0 0 0 0 1 1 0 0 0
2 1 1 2 2 2 1 1 1 1 1 1 1 0 0 0 1 1 1 1 1 0 0 0 0 0 0 0 0 0 0 0 0 0 0 0 0 0 0 0 0 0 0
2 2 2 2 2 2 1 1 1 1 1 1 1 1 1 1 1 1 1 1 1 1 0 0 0 0 0 0 0 0 0 0 0 0 0 0 0 0 0 0 0 0 0
2 2 2 2 2 1 1 1 1 1 1 1 1 1 1 1 1 1 2 2 1 1 0 0 0 0 0 0 0 0 0 0 0 0 0 0 0 0 0 0 0 0 0
3 3 2 2 1 1 1 1 1 1 1 1 1 1 1 1 1 1 1 2 1 1 1 1 0 0 0 0 0 0 0 0 0 0 0 0 0 0 0 0 0 0 0
3 3 3 2 2 2 2 2 1 1 1 1 1 1 1 1 0 0 1 1 1 1 1 1 1 0 0 0 0 0 0 0 0 0 0 0 0 0 0 0 0 0 0
3 3 3 3 2 2 2 2 2 2 1 1 1 1 1 0 0 0 0 0 0 1 1 1 1 0 0 0 0 0 0 0 0 0 0 0 0 0 0 0 0 0 0
3 3 3 3 3 3 2 2 2 2 2 2 2 1 1 1 0 0 0 0 0 0 1 1 1 1 0 0 0 0 0 0 0 0 0 0 0 0 0 0 0 0 0
3 3 3 3 3 3 2 2 2 3 2 2 2 2 2 1 1 0 0 0 0 0 0 0 0 0 0 0 0 0 0 0 0 0 0 0 0 0 0 0 0 0 0
3 3 3 3 3 3 2 3 3 3 2 2 2 2 2 2 1 0 0 0 0 0 0 0 0 0 0 0 0 0 0 1 1 1 0 0 0 0 0 0 0 0 0
3 3 3 3 2 2 3 3 3 3 3 2 2 2 3 2 1 0 0 0 0 0 0 0 0 0 0 0 0 0 0 0 1 1 1 0 0 0 0 0 1 1 1
3 3 3 3 2 2 2 3 4 3 3 3 3 3 3 2 2 1 0 0 0 0 1 1 0 0 0 0 0 0 0 0 0 0 0 0 0 0 1 1 1 1 1
3 3 2 2 1 1 2 3 3 3 3 2 2 2 2 2 2 1 0 0 0 0 1 1 0 0 0 0 0 0 0 0 0 0 0 0 0 1 1 1 1 1 1
2 2 2 2 1 1 2 2 2 2 2 2 1 2 2 2 2 1 1 1 1 1 1 1 1 1 1 0 0 0 0 0 0 1 1 1 1 1 1 1 1 1 1
2 2 2 2 1 1 1 1 1 2 2 1 1 1 2 2 1 1 1 1 1 1 1 1 2 2 1 1 1 1 1 1 1 1 1 1 1 1 1 1 1 1 0
2 2 2 1 1 1 1 1 1 1 1 1 0 1 1 1 0 0 0 0 1 1 1 1 2 2 2 2 2 2 1 1 2 1 1 1 1 1 1 1 1 1 1
2 1 1 1 1 1 1 1 1 1 0 0 0 0 0 0 0 0 0 0 0 0 0 0 1 1 1 1 1 1 1 1 2 2 1 1 1 1 1 1 1 1 1
1 1 1 1 1 1 1 1 2 1 1 1 1 0 0 0 0 0 0 0 0 0 0 1 1 1 1 1 1 1 1 1 1 1 1 1 1 1 1 1 1 1 1
1 1 1 1 1 1 1 2 2 2 2 1 1 0 0 0 0 0 0 0 0 0 1 1 1 1 1 1 1 1 1 1 1 1 1 1 1 1 1 1 1 1 1
0 0 1 1 1 1 1 2 2 1 1 1 1 0 0 0 0 0 0 1 1 1 1 1 1 1 1 1 1 1 1 1 1 1 1 1 1 1 1 1 1 1 1
0 0 0 0 1 1 1 1 1 1 1 1 0 0 0 0 0 1 1 1 1 1 1 1 1 1 1 1 1 1 1 1 1 1 1 1 1 1 1 1 1 1 1
0 0 0 0 0 0 0 0 0 0 0 0 0 0 0 0 1 1 1 1 1 1 1 1 1 1 1 1 1 1 1 1 1 1 1 1 1 1 1 1 1 1 1
0 0 0 0 0 0 0 0 0 0 0 0 0 0 0 1 1 1 1 1 1 1 1 1 1 1 1 1 1 1 1 1 1 1 1 1 1 1 1 0 0 0 0
0 0 0 0 0 0 0 0 0 0 0 0 0 0 1 1 1 1 1 1 1 1 1 1 0 0 0 1 1 1 1 0 0 0 0 0 0 0 0 0 0 0 0
0 0 0 0 0 0 0 0 0 0 0 0 0 1 1 1 1 1 1 1 1 1 1 0 0 0 0 0 1 1 0 0 0 0 0 0 0 0 0 0 0 0 0
0 0 0 0 0 0 0 0 0 0 0 1 1 1 1 1 1 1 1 1 1 0 0 0 0 0 0 0 1 1 0 0 0 0 0 0 0 0 0 0 0 0 0
Wind_Speed
12 11 10 10 10 9 8 8 7 6 6 6 6 5 5 5 5 5 5 4 5 5 5 5 5 5 5 5 5 5 6 6 8 8 7 6 6 9 8 8 9 9 8
12 12 11 10 10 10 9 8 8 7 7 7 6 6 6 6 6 6 6 5 6 6 6 5 6 5 5 7 5 6 6 6 9 10 9 8 8 8 8 9 9 8 8
13 13 12 11 11 10 9 9 8 8 7 7 7 7 7 6 6 6 6 6 6 6 6 6 7 6 7 6 6 7 7 7 7 9 10 7 8 7 8 9 10 8 10
13 13 13 12 11 11 10 9 9 8 8 8 8 8 7 7 7 7 7 7 7 7 7 7 8 8 8 7 7 8 8 8 8 9 9 8 7 7 7 8 8 7 8
14 14 13 12 11 10 10 10 9 9 9 8 8 8 8 7 7 7 7 7 7 8 8 8 8 7 6 7 8 7 8 8 9 8 9 8 8 6 7 7 8 8 8
14 14 13 12 12 11 11 10 10 10 9 9 9 9 9 7 5 4 7 8 8 8 8 8 8 9 11 13 13 12 11 11 11 10 10 9 9 9 8 8 9 9 9
14 13 13 12 12 12 11 11 11 10 10 10 10 9 9 7 8 9 9 9 10 9 9 9 9 7 7 10 12 16 16 17 16 13 13 13 12 11 10 11 10 11 11
14 13 13 13 12 11 11 11 11 10 9 9 10 10 9 8 11 11 10 11 11 11 11 10 10 10 10 9 10 11 11 12 13 14 13 13 13 11 10 11 12 12 13
13 13 12 12 12 11 11 11 10 9 9 9 9 10 10 9 11 12 11 10 10 12 12 12 11 12 9 8 11 12 13 12 12 14 14 14 13 12 11 11 12 12 12
12 11 10 10 10 11 11 10 9 8 9 9 9 9 10 10 9 13 12 10 10 10 10 11 12 14 10 9 11 12 13 12 12 10 11 14 15 16 16 14 13 12 12
10 10 9 9 9 9 8 8 7 8 8 9 9 9 10 10 9 13 14 10 10 10 10 10 8 12 14 13 13 13 13 12 12 13 12 11 11 11 11 12 13 12 12
7 7 8 8 8 7 8 8 8 8 8 9 9 10 9 9 10 11 15 16 13 12 11 11 8 8 13 13 12 13 13 10 12 12 12 11 10 10 9 10 11 12 12
7 7 7 7 7 7 7 8 7 7 8 8 8 8 8 7 8 12 14 16 16 12 11 12 11 7 9 12 17 17 13 12 12 12 12 11 10 10 9 9 10 12 14
6 5 5 6 6 6 5 6 6 7 7 7 7 7 7 7 7 6 7 9 13 13 13 13 15 15 14 15 12 12 13 12 12 12 12 11 10 10 10 9 10 9 10
4 3 4 4 4 4 5 5 6 6 5 6 7 7 7 8 5 4 6 8 8 6 7 9 11 10 11 11 11 11 11 11 11 12 12 11 11 10 10 9 9 9 10
3 2 2 2 2 3 4 5 6 7 6 8 9 9 8 8 8 8 9 9 9 6 7 12 12 12 12 11 11 10 10 11 11 11 11 11 10 10 10 9 8 9 10
1 1 1 1 2 3 4 4 5 6 11 13 13 14 14 13 12 12 11 9 9 7 9 12 12 12 12 11 11 11 11 10 9 10 11 10 10 10 10 10 9 10 11
0 1 1 1 2 3 4 5 5 6 6 7 10 14 15 15 15 14 11 8 9 10 11 12 12 11 11 11 11 11 10 10 9 9 10 10 10 10 10 10 10 11 11
2 1 1 2 3 4 4 5 6 7 7 8 8 7 9 11 13 13 10 10 11 11 11 11 11 11 11 11 10 11 11 10 10 9 10 10 10 10 10 11 11 12 12
1 1 2 3 4 4 4 5 6 7 8 8 8 9 6 6 8 8 8 9 10 11 11 10 10 11 11 11 10 10 10 10 10 10 10 10 10 10 11 12 11 11 10
3 1 2 4 4 4 5 6 6 7 8 8 8 7 6 9 10 11 10 9 9 10 10 10 11 11 11 9 9 10 12 10 10 9 9 9 9 9 10 10 10 11 10
4 4 4 4 5 5 6 7 7 8 9 10 9 7 5 9 10 10 9 9 10 9 10 10 10 10 10 10 9 9 10 10 10 9 9 9 9 9 9 9 9 9 10
5 6 6 5 5 5 7 7 8 8 9 9 9 9 8 8 9 9 10 10 9 10 10 9 9 10 10 9 9 9 10 10 9 8 8 9 8 8 8 9 11 12 11
6 7 7 7 7 7 8 8 9 9 9 9 9 9 9 9 9 10 10 10 9 10 10 9 10 13 15 11 9 9 8 7 8 8 10 10 9 9 9 9 10 12 11
7 7 7 7 8 8 8 9 9 9 10 9 9 9 10 10 10 10 9 9 11 11 12 12 10 10 13 13 12 9 4 3 4 7 9 9 11 11 10 11 11 12 11
7 7 7 7 7 8 8 9 9 10 10 10 10 9 9 9 10 10 10 9 9 10 11 10 11 13 13 11 10 6 3 4 4 5 8 9 11 11 11 10 13 11 12
Wind_Direction
185 186 181 181 180 182 186 184 183 187 186 194 198 204 208 213 217 226 250 231 241 248 249 248 255 278 283 285 275 274 275 279 285 290 293 293 288 286 296 293 285 279 267
185 185 186 184 185 188 189 189 189 192 198 201 205 211 217 219 222 230 240 240 243 248 252 257 260 256 256 270 279 278 279 281 279 288 292 289 284 282 280 282 282 278 282
185 187 187 188 190 196 193 192 195 198 204 206 211 219 223 225 226 231 239 245 248 251 255 257 259 260 261 268 272 276 279 275 276 281 284 287 282 279 285 277 276 274 276
188 191 190 193 194 197 197 195 198 203 206 209 214 222 227 229 230 232 235 241 248 252 253 255 257 258 258 264 264 263 270 279 275 272 278 282 278 276 274 277 278 269 274
191 194 193 194 194 197 198 199 201 206 211 211 217 221 226 230 232 234 240 241 245 252 252 251 252 254 275 269 277 283 280 275 278 278 279 282 284 291 286 289 288 288 277
193 194 192 193 193 196 199 200 202 207 215 215 220 225 228 232 156 189 252 259 253 253 256 256 255 230 229 227 241 256 268 271 277 284 284 286 289 288 289 288 288 285 285
193 193 192 194 197 199 202 202 206 209 212 218 224 228 233 223 178 199 222 255 259 257 258 259 262 262 239 248 231 224 237 240 246 263 276 280 286 287 291 286 282 286 289
194 195 194 197 199 201 205 208 211 214 216 219 225 230 234 225 189 204 213 238 254 255 254 254 258 265 261 259 266 262 259 248 235 236 253 265 271 282 282 279 281 277 270
195 197 197 198 200 200 205 210 213 217 221 224 226 230 235 231 197 202 213 243 246 250 253 253 255 259 248 225 253 263 265 265 250 232 241 256 268 271 269 273 271 271 272
194 194 193 196 201 204 207 210 213 218 227 232 231 233 236 240 207 198 207 245 252 256 252 250 240 240 247 213 244 258 264 268 275 267 241 242 249 248 234 240 257 265 271
187 183 186 191 200 207 206 205 211 218 227 235 240 238 239 242 222 201 205 239 257 260 263 261 257 205 216 220 232 253 261 272 277 274 268 261 255 251 243 233 236 250 264
175 177 183 187 198 198 200 203 209 219 225 230 237 245 243 236 235 219 209 222 247 261 265 269 272 198 206 217 227 243 250 257 263 265 265 263 263 261 256 253 246 247 253
167 177 183 185 196 202 203 205 210 215 231 235 235 243 248 245 229 216 215 221 229 245 263 270 280 260 228 233 234 236 238 243 251 256 260 262 263 264 266 261 254 249 251
160 167 174 183 192 197 213 217 222 226 235 243 248 252 257 255 256 245 231 225 222 233 250 258 249 246 244 259 260 232 231 242 250 257 262 264 264 260 256 257 258 255 253
157 174 184 192 206 211 215 229 234 238 248 256 263 266 269 270 278 306 285 277 281 294 294 268 264 259 250 246 246 246 246 242 239 247 254 259 262 262 260 256 256 261 261
151 170 196 202 201 234 239 236 223 241 234 237 248 264 274 272 287 282 271 271 276 281 272 263 264 264 263 263 263 260 253 247 248 250 253 255 258 260 261 258 253 251 256
115 142 237 242 232 245 256 261 261 239 229 235 238 239 244 263 271 269 268 269 262 231 243 257 262 266 268 267 265 264 263 260 257 256 257 255 255 257 259 259 256 252 254
209 163 252 270 273 269 269 273 275 280 278 269 243 231 234 242 250 254 254 257 251 226 245 257 263 265 267 268 269 270 269 268 262 258 258 258 255 255 258 258 257 257 258
331 343 335 315 295 290 288 286 289 289 287 287 288 264 228 236 242 244 232 243 260 262 261 263 265 267 269 270 270 269 267 266 265 262 259 257 254 253 256 257 256 256 257
5 61 313 307 302 299 297 296 294 291 288 287 288 291 289 275 273 263 245 253 262 268 271 272 272 273 272 272 271 270 268 265 263 258 256 256 254 254 257 258 259 260 258
334 344 244 281 298 305 303 300 299 296 294 293 293 299 306 291 284 282 280 275 273 275 277 278 279 277 273 269 267 267 268 268 267 265 263 261 260 260 261 261 262 261 261
318 312 306 307 308 307 310 302 297 295 294 294 295 291 263 274 284 287 289 288 285 285 285 282 280 281 280 278 273 268 266 267 267 266 265 266 266 266 266 264 262 263 264
303 304 302 302 300 298 284 289 295 296 296 296 296 296 293 292 292 291 291 293 293 290 288 288 285 282 282 278 274 272 271 272 275 278 276 275 275 273 271 267 266 268 268
303 305 306 307 304 302 302 301 298 298 299 301 302 299 296 293 290 292 295 296 296 292 290 289 286 286 287 286 282 275 276 286 290 285 282 279 276 272 269 267 268 270 270
304 306 306 305 305 305 304 302 303 304 303 300 298 297 298 298 297 297 298 297 298 296 296 295 292 291 291 291 288 286 307 317 298 298 286 277 273 272 270 270 269 271 270
304 303 303 304 306 307 306 306 305 304 303 302 302 302 302 302 303 303 302 300 301 300 299 299 298 299 297 292 294 303 303 289 280 278 279 276 273 271 271 270 272 272 272